Location: Julian California
(33.0790°N, 116.6010°W)
Time: 00:07:11
(UTC-08:00)

Cosmos 1680 Rocket - Pass Details

Date: 19 May 2017
Orbit: 761 x 781 km, 74.1° (Epoch: 20 November)

Event Time Altitude Azimuth Distance (km) Brightness Sun altitude
Exits shadow 21:40:35 47° 147° (SSE) 1,001 3.6 -21.4°
Maximum altitude 21:41:39 57° 103° (ESE) 898 3.5 -21.5°
Drops below altitude 10° 21:46:45 10° 26° (NNE) 2,299 6.2 -22.3°
Sets 21:49:09 0° 22° (NNE) 3,226 7.0 -22.6°
